[[{"header":{"parameterUnit":"m.s-1","parameterCategory":1,"la1":30.2992,"la2":30.254,"lo1":-89.0895,"lo2":-89.0443,"dy":0.0025,"dx":0.0025,"nx":19,"ny":19,"refTime":"2026-03-27T21:00:00:Z","depth":0,"parameterNumber":2,"parameterNumberName":"U-component_of_WINDS"},"data":[0,0,0,-0.6937,-0.6937,-0.692,-0.692,-0.6896,-0.6896,0,0,0,0,0,0,0,0,0,0,0,-0.6942,-0.6942,-0.6937,-0.6937,-0.692,-0.692,-0.6896,-0.6896,0,0,0,0,0,0,0,0,0,0,0,-0.6942,-0.6942,-0.6942,-0.6937,-0.692,-0.6919,-0.6896,-0.6909,0,0,0,0,0,0,0,0,0,0,-0.6926,-0.6932,-0.6942,-0.6942,-0.6936,-0.692,-0.6919,-0.691,-0.6908,-0.6904,0,-0.6901,0,-0.6898,-0.6894,-0.6894,0,0,0,-0.6936,-0.6933,-0.6928,-0.6942,-0.6936,-0.692,-0.6927,-0.6909,-0.6907,-0.6902,-0.69,-0.6899,-0.6898,-0.6894,-0.6894,-0.687,-0.687,0,0,-0.6937,-0.6939,-0.6929,-0.6927,-0.6931,-0.6928,-0.6927,-0.6908,-0.6906,-0.69,-0.6899,-0.6897,-0.6894,-0.6894,-0.687,-0.687,0,0,0,-0.694,-0.694,-0.6936,-0.6928,-0.6925,-0.6927,-0.6926,-0.6907,-0.6905,-0.6899,-0.6897,-0.6894,-0.6894,-0.687,-0.687,-0.6869,0,0,0,-0.6941,-0.6942,-0.6936,-0.6937,-0.6926,-0.6916,-0.6925,-0.6907,-0.6905,-0.6897,-0.6894,-0.6893,-0.6871,-0.687,-0.6869,-0.6867,0,0,0,-0.6943,-0.6942,-0.694,-0.6938,-0.693,-0.6917,-0.6914,-0.6906,-0.6904,-0.6894,-0.6893,-0.6871,-0.687,-0.6869,-0.6867,-0.6861,0,0,0,-0.6947,-0.6939,-0.694,-0.693,-0.6931,-0.6916,-0.6914,-0.6903,-0.6895,-0.6894,-0.6871,-0.687,-0.6869,-0.6868,-0.6861,-0.6855,-0.6853,0,0,-0.6938,-0.6938,-0.6932,-0.6932,-0.6918,-0.6919,-0.6904,-0.6893,-0.689,-0.6877,-0.6876,-0.6869,-0.6867,-0.6861,-0.6843,-0.6842,0,0,0,-0.693,-0.6925,-0.6921,-0.6914,-0.6906,-0.6899,-0.6891,-0.6887,-0.6876,-0.6884,-0.6865,-0.6864,-0.686,-0.6857,-0.6856,-0.6851,-0.6869,-0.6869,-0.6869,-0.692,-0.6917,-0.6906,-0.69,-0.6893,-0.6884,-0.6878,-0.687,-0.6869,-0.6864,-0.686,-0.685,-0.6846,-0.6845,-0.6841,-0.6857,-0.6857,-0.6857,-0.6857,-0.6906,-0.6899,-0.6897,-0.6886,-0.6881,-0.6871,-0.6862,-0.6861,-0.685,-0.6853,-0.6849,-0.6852,-0.6844,-0.684,-0.6857,-0.6857,-0.6857,-0.6857,-0.6857,-0.6899,-0.6895,-0.6891,-0.6879,-0.687,-0.6864,-0.6854,-0.685,-0.6846,-0.6842,-0.6837,-0.6837,-0.6835,-0.684,-0.684,-0.684,-0.684,-0.684,-0.684,-0.6893,-0.6889,-0.6881,-0.6872,-0.6866,-0.6858,-0.6848,-0.6842,-0.6834,-0.6832,-0.6832,-0.6829,-0.6844,-0.6848,-0.6839,-0.684,-0.684,-0.684,-0.684,-0.6879,-0.6882,-0.687,-0.6864,-0.6852,-0.6843,-0.6838,-0.6825,-0.682,-0.6814,-0.6812,-0.6825,-0.6824,-0.6825,-0.6827,-0.6814,-0.6814,-0.6814,-0.6814,-0.6873,-0.6872,-0.6859,-0.6849,-0.684,-0.6834,-0.6819,-0.6811,-0.6803,-0.6798,-0.68,-0.6803,-0.6804,-0.6803,-0.6804,-0.6806,-0.6788,-0.6788,-0.6788,-0.6863,-0.6861,-0.685,-0.6843,-0.6833,-0.6824,-0.6809,-0.6797,-0.6788,-0.6787,-0.6794,-0.6795,-0.6801,-0.6803,-0.6801,-0.6804,-0.6808,0,0]},{"header":{"parameterUnit":"m.s-1","parameterCategory":1,"la1":30.2992,"la2":30.254,"lo1":-89.0895,"lo2":-89.0443,"dy":0.0025,"dx":0.0025,"nx":19,"ny":19,"refTime":"2026-03-27T21:00:00:Z","depth":0,"parameterNumber":3,"parameterNumberName":"V-component_of_WINDS"},"data":[0,0,0,0.0468,0.0468,0.0478,0.0478,0.0493,0.0493,0,0,0,0,0,0,0,0,0,0,0,0.0466,0.0467,0.0468,0.0468,0.0478,0.0478,0.0493,0.0493,0,0,0,0,0,0,0,0,0,0,0,0.0466,0.0467,0.0467,0.0468,0.0478,0.0478,0.0493,0.0485,0,0,0,0,0,0,0,0,0,0,0.0474,0.0475,0.0467,0.0467,0.0468,0.0478,0.0478,0.0484,0.0485,0.0489,0,0.0494,0,0.0494,0.0494,0.0494,0,0,0,0.0467,0.0474,0.0475,0.0467,0.0468,0.0478,0.0473,0.0485,0.0486,0.0491,0.0494,0.0495,0.0494,0.0494,0.0494,0.0524,0.0524,0,0,0.0466,0.0469,0.0475,0.0476,0.0475,0.0473,0.0474,0.0485,0.0489,0.0494,0.0495,0.0494,0.0494,0.0495,0.0523,0.0524,0,0,0,0.0466,0.0469,0.047,0.0476,0.0477,0.0473,0.0474,0.0489,0.0489,0.0495,0.0494,0.0495,0.0495,0.0523,0.0524,0.0536,0,0,0,0.0465,0.0468,0.047,0.0471,0.0477,0.0483,0.0477,0.0488,0.0489,0.0494,0.0495,0.0495,0.0523,0.0523,0.0535,0.0542,0,0,0,0.0465,0.0468,0.047,0.0471,0.0476,0.0483,0.0484,0.0488,0.0489,0.0494,0.0495,0.0523,0.0523,0.0535,0.0541,0.0551,0,0,0,0.0466,0.0482,0.0471,0.0487,0.0476,0.0491,0.0483,0.0494,0.05,0.0495,0.0523,0.0524,0.0534,0.054,0.055,0.056,0.0564,0,0,0.0487,0.0484,0.0494,0.0484,0.0502,0.0489,0.0508,0.0511,0.0509,0.0519,0.0519,0.0536,0.0541,0.0551,0.0586,0.059,0,0,0,0.0501,0.0508,0.0512,0.0518,0.0521,0.0524,0.0523,0.0524,0.0532,0.0514,0.0542,0.0544,0.055,0.0555,0.0558,0.0562,0.0526,0.0526,0.0526,0.0536,0.0532,0.0548,0.0545,0.055,0.055,0.0554,0.0555,0.0549,0.0556,0.0559,0.0581,0.0587,0.0589,0.0594,0.0563,0.0563,0.0563,0.0563,0.0567,0.0576,0.0568,0.058,0.0575,0.0585,0.0585,0.058,0.0589,0.0579,0.0583,0.0573,0.0593,0.0597,0.0564,0.0564,0.0564,0.0564,0.0564,0.059,0.0593,0.0594,0.0602,0.0608,0.0604,0.0612,0.0608,0.0604,0.0608,0.0611,0.0611,0.061,0.061,0.061,0.061,0.061,0.061,0.061,0.0613,0.0614,0.0621,0.0624,0.0627,0.063,0.0629,0.0631,0.0633,0.0629,0.0629,0.0623,0.0595,0.0589,0.0611,0.0611,0.0611,0.0611,0.0611,0.0648,0.0639,0.0651,0.0654,0.0657,0.0663,0.0656,0.0662,0.0663,0.0667,0.066,0.064,0.0637,0.0634,0.0629,0.066,0.066,0.066,0.066,0.0667,0.0665,0.0676,0.0681,0.0684,0.0679,0.0693,0.0691,0.0688,0.0688,0.0683,0.0675,0.0673,0.0671,0.0668,0.0663,0.0702,0.0702,0.0702,0.0688,0.0686,0.0698,0.0695,0.0697,0.0698,0.071,0.0715,0.071,0.0704,0.0689,0.0687,0.0674,0.067,0.0665,0.066,0.0651,0,0]}]]